STARLINK-1127 (45091 NORAD) Tracking and Keplerian Element Data

This shows tracking and keplerian element data for the satellite.

Feedback or suggestion? Click here.




ElementValue
Catalog45091
NameSTARLINK-1127
Epoch Orbit404
Epoch Day52.91667824
Epoch Year2020
RAAN119.5243
Inclination52.9972
Eccentricity0.000137
Argument of Perigee49.9353
Mean Anonmoly88.4981
Mean Motion15.73182527
Decay Rate0.00012521
L11 45091U 20006AZ 20052.91667824 .00012521 00000-0 93550-4 0 9996
L22 45091 52.9972 119.5243 0001370 49.9353 88.4981 15.73182527 4041

Live tracking and technical data element details for STARLINK-1127 (NORAD 45091). STARLINK-1127 can be tracked NOW for your location showing map with azimuth and elevation plus other details from your city location.

Track the satellite on the map from your city or location and see movement details for azimuth, elevation, latitude, longitude, range, height, and movement on the map or in text.







IsCatalogInMostPopularTable: catalog: 45091, numindb: 8
Update: records affected: 1



GetName: 45091 STARLINK-1127

Hit Count: updated at: Wed, 26 Feb 2020 16:55:30 GMT